Voltar ao catálogo

CZ-4 DEB

AtivoSSO
NORAD 26203·DEBRIS·🇨🇳 China

Lançado Oct 14, 1999 de Taiyuan Satellite Launch Center

Loading…

Próximas Passagens (próximas 24 horas)

TLE

AtualizadoSource: Space-Track

Época: Sep 14, 2026, 08:04 UTC

1 26203U 99057CR  26257.33624324  .00000285  00000-0  11036-3 0  9991
2 26203  98.3550  27.6588 0108816  57.5051 331.4026 14.33769620381730

Acompanhe CZ-4 DEB em tempo real com AllMySat

Download on the App Store